Flag for Germany Weather past 2 weeks in Neumarkt in der Oberpfalz, Bavaria, Germany

48 °F

Rain. Low clouds.

Feels Like: 44 °F
Forecast: 39 / 48 °F
Wind: 10 mph from West

Location: Hohenfels

Current Time: Dec 1, 2015 at 7:56:59 PM

Latest Report: Dec 1, 2015 at 6:58 PM

Visibility: N/A

Pressure: 30.30 "Hg

Humidity: 94%

Dew point: 46 °F

Location of Neumarkt in der OberpfalzLocation

Historic Weather in Neumarkt in der Oberpfalz — Graph


Neumarkt in der Oberpfalz temperature yesterday

Maximum temperature yesterday: 48 °F (at 1:58 AM)
Minimum temperature yesterday: 45 °F (at 10:58 AM)
Average temperature yesterday: 46 °F

Past Weeks' High & Low Weather Summary

High59 °F (Nov 18, 3:58 AM)100% (Nov 18, 7:58 PM)30.34 "Hg (Nov 18, 7:58 PM)
Low25 °F (Nov 27, 6:59 AM)55% (Nov 18, 10:58 AM)29.42 "Hg (Nov 21, 4:02 PM)
Average40 °F89%29.97 "Hg
* Reported Nov 16 6:58 PM — Dec 1 6:58 PM, Neumarkt in der Oberpfalz, Weather by CustomWeather, © 2015

Note: Actual official high and low records may vary slightly from our data, if they occured in-between our weather recording intervals... More about our weather records


Neumarkt in der Oberpfalz weather history for previous 24 hours

Time TempWeatherWind HumidityBarometerVisibility
6:58 PM
Tue, Dec 1
48 °FRain. Low clouds.10 mph94%30.30 "HgN/A
6:04 PM48 °FRain. Fog.10 mph94%30.28 "Hg4 mi
4:58 PM48 °FRain. Fog.7 mph94%30.29 "Hg4 mi
3:58 PM48 °FLight rain. Fog.8 mph94%30.27 "Hg2 mi
2:58 PM48 °FLight rain. Fog.7 mph100%30.26 "Hg2 mi
2:03 PM48 °FLight rain. Fog.9 mph100%30.24 "Hg2 mi
1:58 PM48 °FLight rain. Fog.6 mph100%30.26 "Hg3 mi
12:58 PM48 °FLight rain. Fog.8 mph94%30.24 "Hg5 mi
11:58 AM48 °FDrizzle. Fog.9 mph94%30.24 "Hg6 mi
10:59 AM46 °FLight rain. Fog.13 mph100%30.21 "Hg3 mi
9:58 AM46 °FLight rain. Fog.12 mph100%30.22 "Hg2 mi
9:03 AM46 °FLight rain. Fog.9 mph100%30.18 "Hg5 mi
7:58 AM46 °FLight rain. Fog.13 mph100%30.19 "Hg3 mi
6:58 AM46 °FRain. Fog.15 mph100%30.17 "Hg5 mi
5:58 AM46 °FRain. Fog.12 mph93%30.14 "Hg3 mi
4:58 AM46 °FRain. Fog.15 mph93%30.12 "Hg6 mi
3:58 AM46 °FRain. Fog.15 mph93%30.10 "Hg4 mi
2:58 AM46 °FRain. Fog.17 mph93%30.08 "Hg5 mi
1:58 AM46 °FLight rain. Overcast.15 mph87%30.07 "HgN/A
12:58 AM46 °FRain. Overcast.16 mph93%30.06 "HgN/A
11:58 PM
Mon, Nov 30
46 °FLight rain. Mostly cloudy.18 mph87%30.06 "HgN/A
10:58 PM46 °FRain. Fog.17 mph93%30.06 "HgN/A
9:58 PM46 °FRain. Fog.9 mph93%30.07 "HgN/A
8:58 PM46 °FLight rain. Overcast.12 mph87%30.08 "HgN/A
8:01 PM46 °FLight rain. Overcast.9 mph87%30.06 "HgN/A
7:58 PM46 °FPassing clouds.9 mph87%30.08 "HgN/A
Weather by CustomWeather, © 2015

See weather overviewHow to use our weather pages